Regional Weather Roundup
Issued by NWS

Home | Current Version | Previous Version | Graphics & Text | Print | Product List | Glossary On
Versions: 1 2 3 4 5 6 7 8 9 10 11 12 13 14 15 16 17 18 19 20 21 22 23 24 25 26 27 28 29 30 31 32 33 34 35 36 37 38 39 40 41 42 43 44 45 46 47 48 49 50
000
ASUS43 KBIS 311210
RWRND

NORTH DAKOTA REGIONAL WEATHER ROUNDUP
NATIONAL WEATHER SERVICE BISMARCK ND
700 AM CDT FRI JUL 31 2015

NOTE: "FAIR" INDICATES FEW OR NO CLOUDS BELOW 12,000 FEET WITH NO
SIGNIFICANT WEATHER AND/OR OBSTRUCTIONS TO VISIBILITY.


NDZ001>003-009>011-017-311300-
NORTHWEST NORTH DAKOTA

CITY           SKY/WX    TMP DP  RH WIND       PRES   REMARKS
WILLISTON      CLEAR     55  51  86 CALM      30.16S
6HR MIN TEMP:  54; 6HR MAX TEMP:  60;

MINOT          CLEAR     59  50  72 W6        30.13S
MINOT AFB      CLEAR     52  52  99 W5        30.13S
$$

NDZ018>021-031>035-040>046-311300-
SOUTHWEST NORTH DAKOTA

CITY           SKY/WX    TMP DP  RH WIND       PRES   REMARKS
BISMARCK       CLEAR     54  51  90 W3        30.18S
6HR MIN TEMP:  49; 6HR MAX TEMP:  62;

DICKINSON      CLEAR     55  48  77 SW7       30.18S
GARRISON         N/A     58  52  80 CALM      30.15S
6HR MIN TEMP:  52; 6HR MAX TEMP:  59;

HETTINGER ARPT CLEAR     48  44  86 CALM      30.22S
$$

NDZ004>008-012>016-024-026-027-054-311300-
NORTHEAST NORTH DAKOTA

CITY           SKY/WX    TMP DP  RH WIND       PRES   REMARKS
GRAND FORKS    CLEAR     59  52  77 W9        30.04R
GRND FRKS AFB  CLEAR     60  53  76 W9        30.06R
DEVILS LAKE    PTCLDY    61  48  63 W9        30.10R
$$

NDZ022-023-025-028>030-036>039-047>053-311300-
SOUTHEAST NORTH DAKOTA

CITY           SKY/WX    TMP DP  RH WIND       PRES   REMARKS
FARGO          CLEAR     57  52  83 W10       30.08R
6HR MIN TEMP:  56; 6HR MAX TEMP:  61;

JAMESTOWN      CLEAR     58  51  78 W6        30.13R
$$



USA.gov is the U.S. government's official web portal to all federal, state and local government web resources and services.